| time (UTC) | temp C | wind direction | speed KPH | gust KPH | rain 1hr cm | rain 24hr cm | rain mn cm | humidity % | barometer mb |
| 20260506123010 | 18 | 165 | 1.6 | 12.9 | 0.00 | 0.00 | 0.00 | 71 | 1009.3 |
| 20260506122505 | 18 | 229 | 1.6 | 12.9 | 0.00 | 0.00 | 0.00 | 72 | 1009.4 |
| 20260506122007 | 18 | 180 | 1.6 | 8.0 | 0.00 | 0.00 | 0.00 | 72 | 1009.4 |
| 20260506121514 | 18 | 233 | 1.6 | 8.0 | 0.00 | 0.00 | 0.00 | 72 | 1009.5 |
| 20260506121005 | 18 | 195 | 1.6 | 8.0 | 0.00 | 0.00 | 0.00 | 72 | 1009.5 |
| 20260506120507 | 17 | 148 | 3.2 | 9.7 | 0.00 | 0.00 | 0.00 | 72 | 1009.6 |
| 20260506120026 | 18 | 123 | 1.6 | 9.7 | 0.00 | 0.00 | 0.00 | 72 | 1009.7 |
| 20260506115509 | 18 | 162 | 0.0 | 4.8 | 0.00 | 0.00 | 0.00 | 72 | 1009.7 |
| 20260506115003 | 17 | 170 | 1.6 | 6.4 | 0.00 | 0.00 | 0.00 | 73 | 1009.7 |
| 20260506114507 | 17 | 264 | 0.0 | 6.4 | 0.00 | 0.00 | 0.00 | 73 | 1009.9 |
| 20260506114007 | 17 | 175 | 1.6 | 8.0 | 0.00 | 0.00 | 0.00 | 73 | 1009.8 |
| 20260506113504 | 17 | 166 | 3.2 | 11.3 | 0.00 | 0.00 | 0.00 | 72 | 1009.8 |
| 20260506113008 | 17 | 189 | 1.6 | 11.3 | 0.00 | 0.00 | 0.00 | 73 | 1009.8 |
| 20260506112503 | 17 | 175 | 0.0 | 8.0 | 0.00 | 0.00 | 0.00 | 74 | 1009.7 |
| 20260506112004 | 17 | 163 | 1.6 | 11.3 | 0.00 | 0.00 | 0.00 | 74 | 1009.6 |
| 20260506111510 | 17 | 197 | 1.6 | 11.3 | 0.00 | 0.00 | 0.00 | 75 | 1009.6 |
| 20260506111004 | 17 | 202 | 0.0 | 6.4 | 0.00 | 0.00 | 0.00 | 75 | 1009.7 |
| 20260506110509 | 17 | 115 | 0.0 | 6.4 | 0.00 | 0.00 | 0.00 | 75 | 1009.6 |
| 20260506110016 | 17 | 233 | 1.6 | 14.5 | 0.00 | 0.00 | 0.00 | 75 | 1009.6 |
| 20260506105506 | 17 | 162 | 1.6 | 14.5 | 0.00 | 0.00 | 0.00 | 75 | 1009.4 |
| 20260506105008 | 17 | 260 | 1.6 | 8.0 | 0.00 | 0.00 | 0.00 | 76 | 1009.4 |
| 20260506104527 | 17 | 152 | 1.6 | 6.4 | 0.00 | 0.00 | 0.00 | 76 | 1009.6 |
| 20260506104007 | 17 | 160 | 1.6 | 6.4 | 0.00 | 0.00 | 0.00 | 76 | 1009.7 |
| 20260506103506 | 17 | 185 | 1.6 | 6.4 | 0.00 | 0.00 | 0.00 | 76 | 1009.7 |
| 20260506103005 | 17 | 152 | 0.0 | 6.4 | 0.00 | 0.00 | 0.00 | 76 | 1009.5 |
| 20260506102503 | 16 | 215 | 1.6 | 6.4 | 0.00 | 0.00 | 0.00 | 76 | 1009.5 |
| 20260506102003 | 16 | 168 | 0.0 | 6.4 | 0.00 | 0.00 | 0.00 | 76 | 1009.5 |
| 20260506101508 | 16 | 142 | 0.0 | 9.7 | 0.00 | 0.00 | 0.00 | 76 | 1009.4 |
| 20260506101003 | 16 | 155 | 1.6 | 9.7 | 0.00 | 0.00 | 0.00 | 76 | 1009.5 |
| 20260506100504 | 16 | 180 | 0.0 | 4.8 | 0.00 | 0.00 | 0.00 | 76 | 1009.4 |
| 20260506100019 | 16 | 170 | 1.6 | 4.8 | 0.00 | 0.00 | 0.00 | 77 | 1009.3 |
| 20260506095507 | 16 | 193 | 1.6 | 4.8 | 0.00 | 0.00 | 0.00 | 77 | 1009.2 |
| 20260506095008 | 16 | 222 | 1.6 | 8.0 | 0.00 | 0.00 | 0.00 | 77 | 1009.4 |
| 20260506094518 | 16 | 198 | 0.0 | 8.0 | 0.00 | 0.00 | 0.00 | 76 | 1009.4 |
| 20260506094008 | 16 | 143 | 1.6 | 8.0 | 0.00 | 0.00 | 0.00 | 76 | 1009.4 |
| 20260506093507 | 16 | 164 | 1.6 | 4.8 | 0.00 | 0.00 | 0.00 | 76 | 1009.4 |
| 20260506093031 | 16 | 130 | 0.0 | 4.8 | 0.00 | 0.00 | 0.00 | 76 | 1009.5 |
| 20260506092508 | 16 | 206 | 0.0 | 4.8 | 0.00 | 0.00 | 0.00 | 76 | 1009.4 |
| 20260506092007 | 16 | 162 | 1.6 | 4.8 | 0.00 | 0.00 | 0.00 | 76 | 1009.4 |
| 20260506091526 | 16 | 141 | 0.0 | 3.2 | 0.00 | 0.00 | 0.00 | 75 | 1009.5 |
| 20260506091007 | 16 | 141 | 0.0 | 3.2 | 0.00 | 0.00 | 0.00 | 74 | 1009.5 |
| 20260506090506 | 16 | 153 | 0.0 | 3.2 | 0.00 | 0.00 | 0.00 | 74 | 1009.5 |
| 20260506090011 | 16 | 168 | 0.0 | 3.2 | 0.00 | 0.00 | 0.00 | 74 | 1009.5 |
| 20260506085506 | 16 | 269 | 0.0 | 3.2 | 0.00 | 0.00 | 0.00 | 74 | 1009.6 |
| 20260506085006 | 17 | 194 | 0.0 | 3.2 | 0.00 | 0.00 | 0.00 | 74 | 1009.6 |
| 20260506084518 | 17 | 185 | 0.0 | 4.8 | 0.00 | 0.00 | 0.00 | 73 | 1009.6 |
| 20260506084007 | 17 | 134 | 0.0 | 4.8 | 0.00 | 0.00 | 0.00 | 73 | 1009.7 |
| 20260506083508 | 17 | 134 | 1.6 | 4.8 | 0.00 | 0.00 | 0.00 | 73 | 1009.7 |
| 20260506083028 | 17 | 149 | 0.0 | 3.2 | 0.00 | 0.00 | 0.00 | 72 | 1009.7 |
| 20260506082511 | 17 | 185 | 0.0 | 1.6 | 0.00 | 0.00 | 0.00 | 72 | 1009.6 |
| 20260506082009 | 17 | 191 | 0.0 | 3.2 | 0.00 | 0.00 | 0.00 | 71 | 1009.7 |
| 20260506081526 | 17 | 232 | 0.0 | 3.2 | 0.00 | 0.00 | 0.00 | 71 | 1009.8 |
| 20260506081007 | 17 | 175 | 0.0 | 4.8 | 0.00 | 0.00 | 0.00 | 71 | 1009.7 |
| 20260506080507 | 17 | 204 | 0.0 | 4.8 | 0.00 | 0.00 | 0.00 | 71 | 1009.8 |
| 20260506073507 | 17 | 143 | 0.0 | 3.2 | 0.00 | 0.00 | 0.00 | 68 | 1009.9 |
| 20260506073004 | 17 | 180 | 0.0 | 4.8 | 0.00 | 0.00 | 0.00 | 68 | 1009.8 |
| 20260506072503 | 17 | 169 | 0.0 | 6.4 | 0.00 | 0.00 | 0.00 | 68 | 1009.8 |
| 20260506072004 | 17 | 162 | 1.6 | 6.4 | 0.00 | 0.00 | 0.00 | 67 | 1009.8 |
| 20260506071504 | 18 | 154 | 0.0 | 3.2 | 0.00 | 0.00 | 0.00 | 67 | 1009.8 |
| 20260506071003 | 18 | 129 | 0.0 | 3.2 | 0.00 | 0.00 | 0.00 | 66 | 1009.9 |
| 20260506070504 | 18 | 172 | 0.0 | 3.2 | 0.00 | 0.00 | 0.00 | 66 | 1009.9 |
| 20260506062506 | 18 | 185 | 1.6 | 4.8 | 0.00 | 0.00 | 0.00 | 64 | 1009.9 |
| 20260506062002 | 18 | 156 | 0.0 | 3.2 | 0.00 | 0.00 | 0.00 | 64 | 1010.0 |
| 20260506061504 | 18 | 139 | 0.0 | 3.2 | 0.00 | 0.00 | 0.00 | 64 | 1010.0 |
| 20260506061005 | 18 | 165 | 0.0 | 4.8 | 0.00 | 0.00 | 0.00 | 64 | 1010.0 |
| 20260506060502 | 18 | 233 | 0.0 | 4.8 | 0.00 | 0.00 | 0.00 | 63 | 1009.9 |
| 20260506051007 | 19 | 159 | 0.0 | 6.4 | 0.00 | 0.00 | 0.00 | 60 | 1010.5 |
| 20260506050510 | 19 | 171 | 1.6 | 6.4 | 0.00 | 0.00 | 0.00 | 60 | 1010.6 |
| 20260506045003 | 19 | 144 | 1.6 | 9.7 | 0.00 | 0.00 | 0.00 | 60 | 1010.6 |
| 20260506044508 | 19 | 137 | 1.6 | 9.7 | 0.00 | 0.00 | 0.00 | 59 | 1010.6 |
| 20260506044004 | 19 | 224 | 1.6 | 6.4 | 0.00 | 0.00 | 0.00 | 59 | 1010.6 |
| 20260506043505 | 19 | 200 | 1.6 | 6.4 | 0.00 | 0.00 | 0.00 | 59 | 1010.6 |
| 20260506042505 | 20 | 197 | 1.6 | 8.0 | 0.00 | 0.00 | 0.00 | 58 | 1010.6 |
| 20260506042009 | 20 | 240 | 3.2 | 6.4 | 0.00 | 0.00 | 0.00 | 58 | 1010.6 |
| 20260506041514 | 20 | 191 | 1.6 | 8.0 | 0.00 | 0.00 | 0.00 | 58 | 1010.5 |
| 20260506041007 | 20 | 158 | 3.2 | 8.0 | 0.00 | 0.00 | 0.00 | 58 | 1010.5 |
| 20260506040506 | 20 | 211 | 3.2 | 9.7 | 0.00 | 0.00 | 0.00 | 57 | 1010.5 |
| 20260506040022 | 20 | 148 | 1.6 | 12.9 | 0.00 | 0.00 | 0.00 | 57 | 1010.3 |
| 20260506035508 | 20 | 191 | 3.2 | 12.9 | 0.00 | 0.00 | 0.00 | 57 | 1010.3 |
| 20260506035011 | 20 | 214 | 1.6 | 6.4 | 0.00 | 0.00 | 0.00 | 57 | 1010.3 |
| 20260506034505 | 20 | 229 | 1.6 | 6.4 | 0.00 | 0.00 | 0.00 | 56 | 1010.4 |
| 20260506034004 | 20 | 158 | 1.6 | 8.0 | 0.00 | 0.00 | 0.00 | 56 | 1010.4 |
| 20260506033507 | 20 | 171 | 3.2 | 8.0 | 0.00 | 0.00 | 0.00 | 55 | 1010.5 |
| 20260506033011 | 20 | 175 | 3.2 | 9.7 | 0.00 | 0.00 | 0.00 | 55 | 1010.5 |
| 20260506032504 | 21 | 126 | 3.2 | 9.7 | 0.00 | 0.00 | 0.00 | 54 | 1010.4 |
| 20260506032005 | 21 | 175 | 1.6 | 8.0 | 0.00 | 0.00 | 0.00 | 53 | 1010.4 |
| 20260506031523 | 21 | 163 | 3.2 | 8.0 | 0.00 | 0.00 | 0.00 | 53 | 1010.3 |
| 20260506031008 | 21 | 175 | 1.6 | 12.9 | 0.00 | 0.00 | 0.00 | 52 | 1010.3 |
| 20260506030506 | 21 | 164 | 3.2 | 12.9 | 0.00 | 0.00 | 0.00 | 52 | 1010.3 |
| 20260506030021 | 21 | 175 | 1.6 | 6.4 | 0.00 | 0.00 | 0.00 | 52 | 1010.2 |
| 20260506025507 | 21 | 223 | 1.6 | 12.9 | 0.00 | 0.00 | 0.00 | 51 | 1010.2 |
| 20260506025010 | 21 | 197 | 4.8 | 12.9 | 0.00 | 0.00 | 0.00 | 50 | 1010.2 |
| 20260506024529 | 21 | 135 | 1.6 | 12.9 | 0.00 | 0.00 | 0.00 | 50 | 1010.1 |
| 20260506024008 | 21 | 166 | 1.6 | 6.4 | 0.00 | 0.00 | 0.00 | 49 | 1010.2 |
| 20260506023508 | 22 | 163 | 1.6 | 12.9 | 0.00 | 0.00 | 0.00 | 48 | 1010.1 |
| 20260506023026 | 22 | 175 | 1.6 | 12.9 | 0.00 | 0.00 | 0.00 | 48 | 1010.1 |
| 20260506022507 | 22 | 106 | 3.2 | 12.9 | 0.00 | 0.00 | 0.00 | 47 | 1010.1 |
| 20260506022006 | 22 | 163 | 3.2 | 9.7 | 0.00 | 0.00 | 0.00 | 46 | 1010.0 |
| 20260506021512 | 22 | 185 | 3.2 | 14.5 | 0.00 | 0.00 | 0.00 | 46 | 1010.0 |
| 20260506021003 | 22 | 151 | 3.2 | 16.1 | 0.00 | 0.00 | 0.00 | 45 | 1010.0 |
| 20260506020504 | 22 | 206 | 4.8 | 16.1 | 0.00 | 0.00 | 0.00 | 44 | 1010.0 |
| 20260506020017 | 22 | 234 | 1.6 | 12.9 | 0.00 | 0.00 | 0.00 | 44 | 1009.9 |
| 20260506015504 | 22 | 175 | 3.2 | 12.9 | 0.00 | 0.00 | 0.00 | 43 | 1009.9 |
| 20260506015009 | 22 | 171 | 3.2 | 8.0 | 0.00 | 0.00 | 0.00 | 43 | 1009.9 |
| 20260506014523 | 22 | 153 | 3.2 | 9.7 | 0.00 | 0.00 | 0.00 | 43 | 1009.9 |
| 20260506014006 | 22 | 228 | 3.2 | 9.7 | 0.00 | 0.00 | 0.00 | 42 | 1009.8 |
| 20260506013508 | 23 | 172 | 3.2 | 11.3 | 0.00 | 0.00 | 0.00 | 42 | 1009.7 |
| 20260506013024 | 23 | 189 | 4.8 | 11.3 | 0.00 | 0.00 | 0.00 | 42 | 1009.7 |
| 20260506012510 | 23 | 206 | 0.0 | 9.7 | 0.00 | 0.00 | 0.00 | 42 | 1009.6 |
| 20260506012012 | 23 | 167 | 1.6 | 9.7 | 0.00 | 0.00 | 0.00 | 42 | 1009.5 |
| 20260506011526 | 23 | 185 | 1.6 | 11.3 | 0.00 | 0.00 | 0.00 | 41 | 1009.5 |
| 20260506011006 | 23 | 133 | 1.6 | 11.3 | 0.00 | 0.00 | 0.00 | 41 | 1009.7 |
| 20260506010506 | 23 | 185 | 1.6 | 6.4 | 0.00 | 0.00 | 0.00 | 40 | 1009.5 |
| 20260506010040 | 23 | 196 | 1.6 | 9.7 | 0.00 | 0.00 | 0.00 | 40 | 1009.5 |
| 20260506005506 | 23 | 175 | 1.6 | 9.7 | 0.00 | 0.00 | 0.00 | 39 | 1009.4 |
| 20260506005007 | 23 | 164 | 1.6 | 8.0 | 0.00 | 0.00 | 0.00 | 39 | 1009.5 |
| 20260506004517 | 23 | 147 | 1.6 | 8.0 | 0.00 | 0.00 | 0.00 | 38 | 1009.4 |
| 20260506004006 | 23 | 159 | 3.2 | 8.0 | 0.00 | 0.00 | 0.00 | 37 | 1009.4 |
| 20260506003507 | 23 | 151 | 1.6 | 8.0 | 0.00 | 0.00 | 0.00 | 37 | 1009.4 |
| 20260506003023 | 23 | 321 | 1.6 | 9.7 | 0.00 | 0.00 | 0.00 | 37 | 1009.2 |
| 20260506002509 | 24 | 233 | 3.2 | 9.7 | 0.00 | 0.00 | 0.00 | 36 | 1009.2 |
| 20260506002009 | 24 | 202 | 1.6 | 8.0 | 0.00 | 0.00 | 0.00 | 35 | 1009.0 |
| 20260506001530 | 24 | 162 | 1.6 | 8.0 | 0.00 | 0.00 | 0.00 | 36 | 1008.9 |
| 20260506001009 | 24 | 149 | 1.6 | 4.8 | 0.00 | 0.00 | 0.00 | 36 | 1008.9 |
| 20260506000508 | 24 | 160 | 1.6 | 8.0 | 0.00 | 0.00 | 0.00 | 35 | 1008.9 |
| 20260506000029 | 24 | 249 | 1.6 | 8.0 | 0.00 | 0.00 | 0.00 | 35 | 1008.8 |
| 20260505235508 | 25 | 175 | 0.0 | 14.5 | 0.00 | 0.00 | 0.00 | 34 | 1008.7 |
| 20260505235008 | 25 | 220 | 3.2 | 14.5 | 0.00 | 0.00 | 0.00 | 34 | 1008.7 |
| 20260505234514 | 25 | 214 | 3.2 | 14.5 | 0.00 | 0.00 | 0.00 | 34 | 1008.7 |
| 20260505234006 | 25 | 175 | 1.6 | 6.4 | 0.00 | 0.00 | 0.00 | 34 | 1008.8 |
| 20260505233508 | 25 | 217 | 1.6 | 6.4 | 0.00 | 0.00 | 0.00 | 33 | 1008.7 |
| 20260505233008 | 25 | 158 | 1.6 | 11.3 | 0.00 | 0.00 | 0.00 | 33 | 1008.7 |
| 20260505232506 | 25 | 149 | 0.0 | 11.3 | 0.00 | 0.00 | 0.00 | 33 | 1008.7 |
| 20260505232003 | 25 | 233 | 3.2 | 11.3 | 0.00 | 0.00 | 0.00 | 32 | 1008.6 |
| 20260505231510 | 25 | 246 | 3.2 | 8.0 | 0.00 | 0.00 | 0.00 | 32 | 1008.3 |
| 20260505231004 | 25 | 157 | 3.2 | 16.1 | 0.00 | 0.00 | 0.00 | 32 | 1008.3 |
| 20260505230504 | 25 | 133 | 4.8 | 16.1 | 0.00 | 0.00 | 0.00 | 32 | 1008.5 |
| 20260505230006 | 25 | 148 | 3.2 | 14.5 | 0.00 | 0.00 | 0.00 | 30 | 1008.3 |
| 20260505225505 | 26 | 158 | 3.2 | 11.3 | 0.00 | 0.00 | 0.00 | 31 | 1008.2 |
| 20260505225002 | 26 | 157 | 1.6 | 12.9 | 0.00 | 0.00 | 0.00 | 31 | 1008.3 |
| 20260505224503 | 26 | 185 | 4.8 | 12.9 | 0.00 | 0.00 | 0.00 | 31 | 1008.1 |
| 20260505224003 | 26 | 166 | 3.2 | 12.9 | 0.00 | 0.00 | 0.00 | 30 | 1008.0 |
| 20260505223502 | 26 | 158 | 3.2 | 12.9 | 0.00 | 0.00 | 0.00 | 30 | 1007.9 |
| 20260505223004 | 26 | 150 | 1.6 | 14.5 | 0.00 | 0.00 | 0.00 | 30 | 1007.9 |
| 20260505222502 | 26 | 258 | 3.2 | 14.5 | 0.00 | 0.00 | 0.00 | 30 | 1008.0 |
| 20260505222003 | 26 | 110 | 1.6 | 12.9 | 0.00 | 0.00 | 0.00 | 30 | 1007.8 |
| 20260505221506 | 26 | 133 | 3.2 | 16.1 | 0.00 | 0.00 | 0.00 | 30 | 1007.9 |
| 20260505221004 | 26 | 215 | 3.2 | 16.1 | 0.00 | 0.00 | 0.00 | 29 | 1007.9 |
| 20260505220504 | 26 | 228 | 3.2 | 9.7 | 0.00 | 0.00 | 0.00 | 29 | 1007.7 |
| 20260505220004 | 27 | 151 | 3.2 | 9.7 | 0.00 | 0.00 | 0.00 | 28 | 1007.8 |
| 20260505215504 | 27 | 116 | 1.6 | 14.5 | 0.00 | 0.00 | 0.00 | 29 | 1007.7 |
| 20260505215004 | 26 | 167 | 4.8 | 14.5 | 0.00 | 0.00 | 0.00 | 28 | 1007.9 |
| 20260505214512 | 26 | 62 | 3.2 | 12.9 | 0.00 | 0.00 | 0.00 | 30 | 1007.9 |
| 20260505214003 | 26 | 155 | 1.6 | 16.1 | 0.00 | 0.00 | 0.00 | 30 | 1007.7 |
| 20260505213506 | 26 | 230 | 1.6 | 16.1 | 0.00 | 0.00 | 0.00 | 30 | 1007.7 |
| 20260505213008 | 26 | 162 | 4.8 | 14.5 | 0.00 | 0.00 | 0.00 | 29 | 1007.4 |
| 20260505212502 | 26 | 158 | 3.2 | 16.1 | 0.00 | 0.00 | 0.00 | 30 | 1007.4 |
| 20260505212002 | 27 | 218 | 3.2 | 16.1 | 0.00 | 0.00 | 0.00 | 30 | 1007.4 |
| 20260505211503 | 27 | 266 | 3.2 | 16.1 | 0.00 | 0.00 | 0.00 | 30 | 1007.2 |
| 20260505211003 | 27 | 175 | 4.8 | 16.1 | 0.00 | 0.00 | 0.00 | 31 | 1007.3 |
| 20260505210503 | 27 | 237 | 4.8 | 16.1 | 0.00 | 0.00 | 0.00 | 30 | 1007.3 |
| 20260505210005 | 27 | 205 | 3.2 | 12.9 | 0.00 | 0.00 | 0.00 | 30 | 1007.2 |
| 20260505205503 | 27 | 195 | 3.2 | 14.5 | 0.00 | 0.00 | 0.00 | 30 | 1007.2 |
| 20260505205002 | 27 | 242 | 4.8 | 14.5 | 0.00 | 0.00 | 0.00 | 31 | 1007.1 |
| 20260505204509 | 26 | 175 | 6.4 | 20.9 | 0.00 | 0.00 | 0.00 | 30 | 1007.3 |
| 20260505204006 | 26 | 248 | 4.8 | 20.9 | 0.00 | 0.00 | 0.00 | 30 | 1007.3 |
| 20260505203502 | 27 | 221 | 8.0 | 20.9 | 0.00 | 0.00 | 0.00 | 29 | 1007.2 |
| 20260505203025 | 27 | 194 | 4.8 | 17.7 | 0.00 | 0.00 | 0.00 | 29 | 1007.2 |
| 20260505202506 | 27 | 175 | 4.8 | 14.5 | 0.00 | 0.00 | 0.00 | 30 | 1007.4 |
| 20260505202008 | 27 | 143 | 6.4 | 16.1 | 0.00 | 0.00 | 0.00 | 30 | 1007.5 |
| 20260505201504 | 27 | 156 | 6.4 | 16.1 | 0.00 | 0.00 | 0.00 | 30 | 1007.7 |
| 20260505201002 | 28 | 136 | 1.6 | 14.5 | 0.00 | 0.00 | 0.00 | 30 | 1007.6 |
| 20260505200502 | 28 | 207 | 3.2 | 14.5 | 0.00 | 0.00 | 0.00 | 29 | 1007.5 |
| 20260505200004 | 28 | 262 | 3.2 | 16.1 | 0.00 | 0.00 | 0.00 | 30 | 1007.5 |
| 20260505195503 | 28 | 228 | 3.2 | 16.1 | 0.00 | 0.00 | 0.00 | 30 | 1007.3 |
| 20260505195003 | 28 | 201 | 1.6 | 16.1 | 0.00 | 0.00 | 0.00 | 30 | 1007.7 |
| 20260505194504 | 28 | 233 | 4.8 | 16.1 | 0.00 | 0.00 | 0.00 | 30 | 1007.5 |
| 20260505194003 | 28 | 197 | 4.8 | 17.7 | 0.00 | 0.00 | 0.00 | 30 | 1007.7 |
| 20260505193503 | 27 | 145 | 4.8 | 17.7 | 0.00 | 0.00 | 0.00 | 30 | 1007.7 |
| 20260505193012 | 28 | 185 | 6.4 | 17.7 | 0.00 | 0.00 | 0.00 | 30 | 1007.7 |
| 20260505192505 | 28 | 143 | 4.8 | 17.7 | 0.00 | 0.00 | 0.00 | 30 | 1007.9 |
| 20260505192007 | 28 | 204 | 4.8 | 19.3 | 0.00 | 0.00 | 0.00 | 29 | 1008.0 |
| 20260505191518 | 28 | 161 | 4.8 | 19.3 | 0.00 | 0.00 | 0.00 | 30 | 1008.0 |
| 20260505191003 | 28 | 198 | 3.2 | 17.7 | 0.00 | 0.00 | 0.00 | 31 | 1007.7 |
| 20260505190509 | 27 | 145 | 4.8 | 17.7 | 0.00 | 0.00 | 0.00 | 31 | 1008.2 |
| 20260505190030 | 28 | 164 | 3.2 | 17.7 | 0.00 | 0.00 | 0.00 | 31 | 1008.2 |
| 20260505185503 | 28 | 206 | 4.8 | 17.7 | 0.00 | 0.00 | 0.00 | 32 | 1008.2 |
| 20260505185005 | 28 | 166 | 6.4 | 16.1 | 0.00 | 0.00 | 0.00 | 31 | 1008.3 |
| 20260505184508 | 28 | 147 | 3.2 | 12.9 | 0.00 | 0.00 | 0.00 | 32 | 1008.4 |
| 20260505184004 | 29 | 189 | 3.2 | 12.9 | 0.00 | 0.00 | 0.00 | 32 | 1008.7 |
| 20260505183503 | 28 | 245 | 1.6 | 11.3 | 0.00 | 0.00 | 0.00 | 35 | 1008.7 |
| 20260505183008 | 28 | 155 | 4.8 | 11.3 | 0.00 | 0.00 | 0.00 | 32 | 1008.7 |
| 20260505182503 | 28 | 158 | 3.2 | 9.7 | 0.00 | 0.00 | 0.00 | 34 | 1008.8 |
| 20260505182003 | 28 | 180 | 3.2 | 14.5 | 0.00 | 0.00 | 0.00 | 33 | 1008.8 |
| 20260505181514 | 28 | 185 | 4.8 | 19.3 | 0.00 | 0.00 | 0.00 | 34 | 1008.9 |
| 20260505181003 | 28 | 171 | 4.8 | 19.3 | 0.00 | 0.00 | 0.00 | 34 | 1008.9 |
| 20260505180506 | 28 | 139 | 3.2 | 8.0 | 0.00 | 0.00 | 0.00 | 34 | 1009.0 |
| 20260505180018 | 28 | 242 | 1.6 | 20.9 | 0.00 | 0.00 | 0.00 | 37 | 1009.0 |
| 20260505175504 | 27 | 124 | 4.8 | 20.9 | 0.00 | 0.00 | 0.00 | 35 | 1009.1 |
| 20260505175014 | 27 | 168 | 6.4 | 16.1 | 0.00 | 0.00 | 0.00 | 35 | 1009.0 |
| 20260505174522 | 27 | 190 | 3.2 | 20.9 | 0.00 | 0.00 | 0.00 | 37 | 1009.2 |
| 20260505174003 | 27 | 175 | 1.6 | 20.9 | 0.00 | 0.00 | 0.00 | 37 | 1009.0 |
| 20260505173503 | 27 | 185 | 3.2 | 9.7 | 0.00 | 0.00 | 0.00 | 37 | 1009.1 |
| 20260505173008 | 27 | 155 | 1.6 | 9.7 | 0.00 | 0.00 | 0.00 | 38 | 1009.2 |
| 20260505172504 | 28 | 224 | 3.2 | 12.9 | 0.00 | 0.00 | 0.00 | 36 | 1009.2 |
| 20260505172003 | 27 | 197 | 4.8 | 12.9 | 0.00 | 0.00 | 0.00 | 37 | 1009.4 |
| 20260505171511 | 27 | 260 | 1.6 | 12.9 | 0.00 | 0.00 | 0.00 | 39 | 1009.5 |
| 20260505171005 | 27 | 148 | 4.8 | 12.9 | 0.00 | 0.00 | 0.00 | 37 | 1009.6 |
| 20260505170506 | 27 | 198 | 1.6 | 12.9 | 0.00 | 0.00 | 0.00 | 38 | 1009.5 |
| 20260505170020 | 27 | 148 | 3.2 | 12.9 | 0.00 | 0.00 | 0.00 | 39 | 1009.6 |
| 20260505165506 | 26 | 151 | 3.2 | 12.9 | 0.00 | 0.00 | 0.00 | 40 | 1009.7 |
| 20260505165006 | 26 | 156 | 3.2 | 12.9 | 0.00 | 0.00 | 0.00 | 43 | 1009.7 |
| 20260505164520 | 26 | 175 | 3.2 | 14.5 | 0.00 | 0.00 | 0.00 | 40 | 1009.8 |
| 20260505164008 | 26 | 167 | 3.2 | 14.5 | 0.00 | 0.00 | 0.00 | 41 | 1009.8 |
| 20260505163509 | 26 | 198 | 3.2 | 14.5 | 0.00 | 0.00 | 0.00 | 39 | 1010.0 |
| 20260505163026 | 26 | 168 | 4.8 | 11.3 | 0.00 | 0.00 | 0.00 | 40 | 1009.9 |
| 20260505162506 | 26 | 171 | 3.2 | 9.7 | 0.00 | 0.00 | 0.00 | 40 | 1010.0 |
| 20260505162005 | 26 | 218 | 4.8 | 9.7 | 0.00 | 0.00 | 0.00 | 38 | 1010.1 |
| 20260505161509 | 26 | 125 | 3.2 | 6.4 | 0.00 | 0.00 | 0.00 | 41 | 1010.2 |
| 20260505161004 | 26 | 185 | 1.6 | 17.7 | 0.00 | 0.00 | 0.00 | 42 | 1010.2 |
| 20260505160510 | 25 | 180 | 3.2 | 17.7 | 0.00 | 0.00 | 0.00 | 42 | 1010.2 |
| 20260505153021 | 23 | 229 | 1.6 | 14.5 | 0.00 | 0.00 | 0.00 | 46 | 1010.7 |
| 20260505152509 | 23 | 161 | 3.2 | 14.5 | 0.00 | 0.00 | 0.00 | 46 | 1010.8 |
| 20260505152009 | 23 | 175 | 4.8 | 9.7 | 0.00 | 0.00 | 0.00 | 46 | 1010.7 |
| 20260505151532 | 24 | 129 | 0.0 | 6.4 | 0.00 | 0.00 | 0.00 | 46 | 1010.7 |
| 20260505151008 | 23 | 105 | 0.0 | 6.4 | 0.00 | 0.00 | 0.00 | 47 | 1010.7 |
| 20260505150507 | 23 | 142 | 1.6 | 9.7 | 0.00 | 0.00 | 0.00 | 47 | 1010.8 |
| 20260505140503 | 21 | 148 | 3.2 | 11.3 | 0.00 | 0.00 | 0.00 | 50 | 1011.2 |
| 20260505125005 | 17 | 142 | 0.0 | 6.4 | 0.00 | 0.00 | 0.00 | 66 | 1011.1 |
| 20260505124512 | 16 | 175 | 1.6 | 6.4 | 0.00 | 0.00 | 0.00 | 69 | 1011.0 |
| 20260505124004 | 16 | 185 | 0.0 | 6.4 | 0.00 | 0.00 | 0.00 | 72 | 1011.1 |
| 20260505123505 | 15 | 166 | 1.6 | 4.8 | 0.00 | 0.00 | 0.00 | 74 | 1011.1 |